Temp
46 47 46 46 47 48 48 47 47 50 50 49 49 49 49 49 49 50 50 50 50 51 53 53 55 56 57
41 42 43 45 45 44 46 48 47 49 49 49 49 49 48 48 49 49 48 48 48 50 51 52 53 54 56
38 42 42 43 42 43 43 44 47 47 46 48 49 48 48 48 48 48 47 47 48 49 49 50 50 51 52
38 37 40 42 42 39 38 41 41 44 45 47 47 47 48 48 48 47 47 46 47 48 48 47 47 49 50
36 37 37 38 37 39 37 38 38 40 40 41 42 42 43 46 46 47 46 46 46 46 46 47 46 47 47
35 34 36 37 39 37 34 32 30 40 38 37 40 39 41 43 46 47 46 46 45 45 45 45 45 45 46
35 35 35 37 36 34 34 34 33 37 37 33 38 36 40 44 45 45 45 45 45 44 44 44 44 45 45
39 38 38 38 37 37 35 34 35 37 38 30 36 34 38 39 43 43 44 45 44 44 44 44 44 43 44
43 42 42 43 42 38 32 30 29 31 36 32 33 32 34 34 38 44 44 43 43 43 43 43 43 43 41
38 39 41 39 41 37 34 29 28 27 33 30 29 30 26 33 34 36 38 42 42 42 42 42 42 38 38
36 36 36 36 36 35 35 32 28 27 33 32 27 27 27 26 30 33 35 36 36 37 40 40 41 41 35
33 33 32 32 32 32 32 31 31 30 32 31 26 26 25 24 25 30 32 34 34 33 33 38 39 40 41
31 31 31 32 31 31 31 32 31 31 33 31 29 28 27 26 25 26 28 30 32 30 32 32 33 34 33
30 31 32 31 30 31 29 29 28 28 31 31 30 29 26 27 27 26 27 25 30 31 30 31 33 34 34
31 30 30 30 29 30 28 28 25 25 25 28 30 31 30 28 25 27 27 27 29 29 29 29 30 32 34
30 29 27 26 27 28 27 26 24 25 25 26 27 25 25 27 32 26 28 27 29 30 29 26 27 31 34
27 27 27 27 27 26 26 26 24 24 24 26 25 23 20 18 25 35 26 27 27 27 28 27 26 29 32
MSLP
1016.84 1016.62 1016.47 1016.22 1015.96 1015.62 1015.39 1014.99 1014.47 1014.10 1013.82 1013.50 1013.12 1012.77 1012.66 1012.46 1012.21 1011.82 1011.44 1010.99 1010.36 1009.64 1008.94 1008.49 1007.89 1007.17 1006.75
1017.03 1016.76 1016.50 1016.12 1015.78 1015.54 1015.25 1014.81 1014.45 1014.07 1013.82 1013.42 1012.96 1012.71 1012.55 1012.22 1011.83 1011.42 1011.11 1010.78 1010.29 1009.23 1008.47 1008.34 1007.65 1006.96 1006.31
1016.76 1016.47 1016.18 1015.88 1015.46 1015.16 1014.85 1014.47 1014.06 1013.73 1013.75 1013.17 1012.61 1012.45 1012.17 1011.79 1011.36 1011.01 1010.69 1010.30 1009.62 1008.88 1008.60 1008.09 1007.60 1007.08 1006.24
1016.91 1016.56 1016.01 1015.63 1015.26 1014.89 1014.55 1014.34 1013.90 1013.91 1013.44 1012.76 1012.49 1012.23 1011.83 1011.35 1010.93 1010.61 1010.34 1010.03 1009.42 1008.76 1008.45 1008.11 1007.52 1006.81 1006.16
1016.65 1016.18 1015.79 1015.39 1015.20 1014.87 1014.50 1014.20 1014.05 1013.63 1012.89 1012.43 1012.34 1011.89 1011.33 1010.88 1010.47 1010.07 1009.97 1009.64 1009.08 1008.59 1008.21 1007.67 1007.11 1006.49 1005.93
1016.64 1016.17 1015.70 1015.51 1015.30 1015.06 1014.82 1014.47 1013.64 1013.34 1012.77 1012.34 1012.11 1011.47 1011.08 1010.44 1009.91 1009.48 1009.37 1008.99 1008.55 1008.15 1007.64 1007.08 1006.53 1005.97 1005.41
1016.35 1016.05 1015.73 1015.56 1015.47 1015.09 1014.80 1014.32 1013.73 1013.24 1012.96 1011.97 1011.84 1011.19 1010.68 1009.98 1009.45 1009.19 1008.87 1008.40 1008.03 1007.60 1006.97 1006.40 1005.86 1005.23 1004.49
1015.77 1015.56 1015.45 1015.30 1015.10 1014.80 1014.49 1014.00 1013.41 1012.93 1012.59 1011.76 1011.42 1010.84 1010.22 1009.71 1009.36 1008.75 1008.20 1007.84 1007.53 1006.98 1006.40 1005.74 1005.10 1004.46 1003.75
1015.07 1014.88 1014.66 1014.27 1013.95 1013.82 1013.81 1013.59 1012.85 1012.52 1012.30 1011.80 1011.25 1010.55 1010.13 1009.48 1008.68 1007.96 1007.72 1007.54 1006.93 1006.45 1005.82 1005.16 1004.44 1003.72 1003.10
1014.65 1014.27 1013.95 1013.68 1013.54 1013.55 1013.49 1013.33 1012.91 1012.18 1011.98 1011.81 1011.41 1011.20 1009.72 1008.93 1008.27 1008.16 1007.55 1006.99 1006.34 1005.82 1005.40 1004.66 1003.97 1003.50 1002.66
1014.07 1013.72 1013.45 1013.34 1013.18 1013.04 1013.05 1013.09 1012.78 1012.27 1011.98 1011.90 1011.41 1011.10 1010.66 1009.05 1008.17 1007.85 1007.39 1006.36 1005.95 1005.38 1004.94 1004.32 1003.64 1003.04 1002.33
1013.54 1013.31 1013.14 1012.98 1012.79 1012.70 1012.57 1012.58 1012.50 1012.19 1011.72 1011.83 1011.32 1010.91 1010.14 1008.91 1007.79 1007.05 1006.68 1006.09 1005.53 1004.90 1004.48 1003.71 1003.21 1002.56 1001.76
1013.05 1012.89 1012.72 1012.54 1012.36 1012.30 1012.11 1011.84 1011.47 1011.13 1010.77 1010.69 1010.46 1009.87 1009.54 1008.41 1007.51 1007.02 1006.27 1005.54 1005.07 1004.51 1004.05 1003.27 1002.66 1002.01 1001.09
1012.77 1012.61 1012.39 1012.24 1012.06 1011.87 1011.58 1011.26 1010.79 1010.23 1010.03 1009.75 1009.44 1009.11 1008.40 1007.86 1007.28 1006.52 1006.20 1005.68 1004.73 1004.07 1003.42 1002.72 1002.01 1001.40 1000.62
1012.36 1012.22 1012.06 1011.85 1011.62 1011.43 1011.19 1010.83 1010.43 1009.84 1009.29 1008.91 1008.47 1008.09 1007.63 1007.26 1006.59 1006.11 1005.30 1004.68 1004.00 1003.34 1002.91 1002.05 1001.26 1000.73 999.93
1012.08 1011.93 1011.71 1011.46 1011.11 1010.84 1010.55 1010.16 1009.70 1009.22 1008.72 1008.32 1007.88 1007.38 1006.89 1006.10 1005.70 1005.03 1004.45 1003.84 1003.21 1002.67 1002.30 1001.69 1000.41 999.79 999.13
1011.75 1011.46 1011.14 1010.82 1010.47 1010.05 1009.68 1009.37 1008.92 1008.55 1008.11 1007.78 1007.42 1007.08 1006.21 1005.15 1004.65 1004.29 1003.63 1003.12 1002.59 1001.97 1001.60 1001.06 1000.15 999.02 998.57
Wind_Speed
8 8 10 9 8 7 8 9 8 16 18 19 20 16 17 20 20 18 18 19 21 23 23 24 24 24 23
8 7 8 9 8 9 7 7 7 13 17 20 19 16 19 21 20 19 16 18 20 20 19 21 23 24 24
9 7 7 7 7 6 8 7 7 13 20 19 16 16 21 21 20 18 15 20 21 20 21 22 23 24 25
6 8 7 7 6 6 7 7 7 9 14 14 18 20 20 20 19 18 15 22 22 20 21 22 23 24 26
8 7 7 7 8 6 8 6 9 8 8 5 8 9 9 15 15 17 19 22 21 18 22 22 23 24 25
8 9 10 9 7 7 7 9 9 6 8 10 9 9 9 8 18 21 22 22 20 21 23 24 24 24 26
10 9 11 9 10 11 10 10 10 9 11 12 8 10 9 10 19 23 25 22 19 24 24 25 25 27 27
9 9 9 10 10 11 11 11 10 9 8 12 8 10 9 8 23 25 22 18 22 23 26 25 28 28 26
16 17 21 23 19 9 8 9 10 9 6 9 9 9 9 11 10 17 18 23 23 26 24 28 26 27 18
9 12 14 9 16 8 7 9 9 9 4 7 8 8 8 6 6 10 10 18 24 23 26 26 25 11 12
9 8 5 6 5 4 5 6 8 10 9 8 6 9 8 12 10 10 11 10 9 12 19 23 21 20 12
7 6 6 5 4 5 5 5 7 12 12 10 7 9 10 12 13 9 9 9 9 9 10 13 22 22 23
7 6 5 5 4 6 7 10 11 11 10 10 10 11 10 12 11 11 13 10 9 6 9 9 10 10 11
7 7 7 7 7 7 7 8 9 8 8 10 12 12 11 11 9 10 10 10 10 8 8 10 10 8 10
7 7 7 7 7 6 7 8 9 9 10 7 8 10 9 11 11 10 12 10 9 9 9 11 11 10 11
6 6 7 7 8 7 7 7 9 9 10 9 9 8 9 10 17 11 10 11 9 9 9 10 13 9 9
7 7 7 7 12 8 8 8 9 9 9 8 8 8 11 12 7 16 8 7 8 11 9 9 12 12 10
Wind_Direction
308 324 316 321 319 319 316 315 315 322 321 325 322 319 323 325 323 321 322 328 327 320 315 311 308 316 318
301 304 312 311 316 319 325 308 318 307 327 315 315 314 317 319 318 319 319 328 325 335 322 314 310 309 313
295 306 306 311 308 308 305 317 312 336 325 316 308 312 315 314 313 316 318 326 323 324 327 329 328 326 322
294 290 291 299 288 309 316 308 322 326 304 303 310 317 311 310 312 308 319 322 319 311 319 321 322 320 315
287 296 298 299 309 312 299 323 315 296 297 296 318 306 303 311 303 303 318 318 314 321 318 315 317 314 314
295 292 300 305 309 314 321 310 303 295 322 306 304 301 300 291 305 305 314 313 312 318 317 318 315 312 309
274 278 291 308 307 296 291 286 289 300 298 291 299 292 299 293 300 310 304 305 306 316 316 315 315 313 310
287 288 284 284 285 288 291 285 284 286 283 291 297 296 290 311 305 300 293 302 308 308 313 313 314 311 307
278 283 284 283 285 289 282 289 291 289 287 292 295 294 305 296 282 293 304 311 305 309 309 313 312 309 308
284 286 287 285 294 281 281 279 284 289 272 301 307 310 294 278 283 319 291 299 303 307 311 312 313 306 298
288 277 283 284 274 277 295 291 290 283 294 309 305 296 278 295 288 296 294 293 303 300 306 309 307 308 303
273 276 275 271 267 264 272 289 286 280 284 273 274 280 282 279 286 297 293 293 290 297 297 298 307 304 302
277 275 276 280 290 286 273 269 263 261 265 261 264 274 273 276 294 293 302 302 289 281 298 291 296 295 297
280 281 283 284 277 276 278 282 281 276 265 265 265 265 271 264 271 289 290 285 294 285 294 292 291 282 285
277 278 282 284 280 275 271 280 277 283 283 274 267 272 272 278 277 273 278 275 273 284 292 294 294 287 284
284 282 281 278 277 275 266 262 271 276 281 285 285 282 283 267 253 269 265 272 276 283 286 293 293 291 284
275 270 274 274 289 276 271 269 267 269 270 275 278 277 282 283 278 271 281 293 289 288 283 281 288 292 292